Tracking 22989 objects as of 8-May-2021
HD Live streaming from Space Station
objects crossing your sky now

THORAD AGENA D DEB

Track THORAD AGENA D DEB now!
10-day predictions


NORAD ID: 4970
Int'l Code: 1970-025GQ
Perigee: 1,023.5 km
Apogee: 1,077.0 km
Inclination: 99.8 °
Period: 106.0 minutes
Semi major axis: 7421 km
RCS: 0.025 m2 (small)
Launch date: April 8, 1970
Source: United States (US)
Launch site: AIR FORCE WESTERN TEST RANGE (AFWTR)

Note: This is SATELLITE DEBRIS
aabbcc
Your satellite tracking list
Your tracking list is empty




NASA's NSSDC Master Catalog

Two Line Element Set (TLE):
1 04970U 70025GQ  21127.78818451  .00000098  00000-0  19783-3 0  9997
2 04970  99.7883  58.3353 0036023 225.9478 200.7565 13.57954072521088
Source of the keplerian elements: AFSPC